Location: Saint-Gaudens
(43.1069°N, 0.7238°E)
Time: 23:46:55
(UTC+01:00)

ISS - Visible Passes

Search period start: 10 December 2023 00:00
Search period end: 20 December 2023 00:00
Orbit: 415 x 417 km, 51.6° (Epoch: 10 December)

Date Brightness Start Highest point End Pass type
(mag) Time Alt. Az. Time Alt. Az. Time Alt. Az.
14 Dec -0.6 07:43:52 10° S 07:46:17 19° SE 07:48:42 10° E visible
15 Dec -0.2 06:56:48 10° SE 06:57:44 11° SE 06:58:40 10° ESE visible
16 Dec -2.7 07:42:00 10° SW 07:45:13 49° SE 07:48:28 10° ENE visible
17 Dec -1.7 06:53:37 10° SSW 06:56:32 28° SE 06:59:28 10° ENE visible
18 Dec -0.9 06:05:52 11° S 06:07:53 17° SE 06:10:07 10° E visible
18 Dec -3.8 07:40:57 10° WSW 07:44:17 65° NNW 07:47:36 10° NE visible
19 Dec -3.7 06:53:13 19° SW 06:55:26 76° SE 06:58:46 10° ENE visible
